CW8659 Weather Reports


time (UTC)temp
C
wind
direction
speed
KPH
gust
KPH
rain 1hr
cm
rain 24hr
cm
rain mn
cm
humidity
%
barometer
mb
20260506051340 13 202 0.0 0.0 0.00 0.00 0.00 79 1008.6
20260506050850 13 200 0.0 0.0 0.00 0.00 0.00 78 1008.7
20260506050338 13 202 0.0 0.0 0.00 0.00 0.00 77 1008.7
20260506044819 13 201 0.0 0.0 0.00 0.00 0.00 76 1008.8
20260506044324 13 202 0.0 0.0 0.00 0.00 0.00 76 1008.8
20260506043848 13 202 0.0 0.0 0.00 0.00 0.00 75 1008.8
20260506043333 13 202 0.0 0.0 0.00 0.00 0.00 74 1008.8
20260506042839 13 202 0.0 0.0 0.00 0.00 0.00 74 1008.8
20260506042324 14 202 0.0 0.0 0.00 0.00 0.00 73 1008.8
20260506041826 14 202 0.0 0.0 0.00 0.00 0.00 72 1008.8
20260506041331 15 201 0.0 0.0 0.00 0.00 0.00 71 1008.8
20260506040839 15 200 0.0 0.0 0.00 0.00 0.00 70 1008.9
20260506040334 15 201 0.0 0.0 0.00 0.00 0.00 68 1008.9
20260506035838 16 201 0.0 0.0 0.00 0.00 0.00 67 1008.8
20260506035326 16 202 0.0 0.0 0.00 0.00 0.00 65 1008.8
20260506034902 16 201 0.0 0.0 0.00 0.00 0.00 64 1008.8
20260506034402 16 200 0.0 0.0 0.00 0.00 0.00 63 1008.8
20260506033843 16 200 0.0 0.0 0.00 0.00 0.00 63 1008.8
20260506033356 16 200 0.0 0.0 0.00 0.00 0.00 62 1008.8
20260506032900 17 200 0.0 0.0 0.00 0.00 0.00 61 1008.7
20260506032345 17 201 0.0 0.0 0.00 0.00 0.00 60 1008.8
20260506031818 17 201 0.0 0.0 0.00 0.00 0.00 59 1008.7
20260506031354 18 201 0.0 0.0 0.00 0.00 0.00 57 1008.7
20260506030833 18 201 0.0 0.0 0.00 0.00 0.00 56 1008.7
20260506030321 18 200 0.0 0.0 0.00 0.00 0.00 55 1008.7
20260506025332 19 201 0.0 0.0 0.00 0.00 0.00 53 1008.7
20260506024816 20 200 0.0 0.0 0.00 0.00 0.00 51 1008.7
20260506024326 20 201 0.0 0.0 0.00 0.00 0.00 49 1008.6
20260506023845 21 201 0.0 0.0 0.00 0.00 0.00 48 1008.7
20260506023331 21 223 0.0 0.0 0.00 0.00 0.00 47 1008.8
20260506022833 21 191 0.0 0.0 0.00 0.00 0.00 47 1008.7
20260506022338 21 229 0.0 0.0 0.00 0.00 0.00 46 1008.7
20260506021833 21 236 0.0 0.0 0.00 0.00 0.00 47 1008.7
20260506021320 21 207 0.0 0.0 0.00 0.00 0.00 46 1008.7
20260506020829 21 241 1.6 0.0 0.00 0.00 0.00 46 1008.7
20260506020356 21 198 3.2 0.0 0.00 0.00 0.00 45 1008.8
20260506015823 21 246 4.8 0.0 0.00 0.00 0.00 45 1008.7
20260506015331 21 221 3.2 0.0 0.00 0.00 0.00 45 1008.6
20260506014837 21 228 1.6 0.0 0.00 0.00 0.00 45 1008.6
20260506014343 22 200 0.0 0.0 0.00 0.00 0.00 44 1008.4
20260506013821 22 214 0.0 0.0 0.00 0.00 0.00 45 1008.4
20260506013325 22 198 0.0 0.0 0.00 0.00 0.00 45 1008.3
20260506012824 22 207 0.0 0.0 0.00 0.00 0.00 44 1008.3
20260506012327 22 205 0.0 0.0 0.00 0.00 0.00 44 1008.2
20260506011828 22 217 1.6 0.0 0.00 0.00 0.00 44 1008.2
20260506011335 22 244 4.8 0.0 0.00 0.00 0.00 43 1008.2
20260506010857 22 198 4.8 0.0 0.00 0.00 0.00 44 1008.0
20260506010343 22 208 3.2 0.0 0.00 0.00 0.00 44 1008.0
20260506005843 22 225 1.6 0.0 0.00 0.00 0.00 45 1008.0
20260506005320 21 195 1.6 0.0 0.00 0.00 0.00 46 1007.9
20260506004821 21 214 3.2 0.0 0.00 0.00 0.00 45 1007.9
20260506004333 22 198 3.2 0.0 0.00 0.00 0.00 45 1007.9
20260506003821 22 186 3.2 0.0 0.00 0.00 0.00 44 1007.9
20260506003324 22 186 4.8 0.0 0.00 0.00 0.00 44 1007.9
20260506002832 22 195 4.8 0.0 0.00 0.00 0.00 42 1007.8
20260506002334 22 205 6.4 0.0 0.00 0.00 0.00 41 1007.8
20260506001831 23 232 6.4 0.0 0.00 0.00 0.00 41 1007.7
20260506001320 23 165 6.4 0.0 0.00 0.00 0.00 40 1007.6
20260506000846 23 179 4.8 0.0 0.00 0.00 0.00 40 1007.5
20260506000403 23 200 3.2 0.0 0.00 0.00 0.00 40 1007.6
20260505235820 23 206 3.2 0.0 0.00 0.00 0.00 40 1007.5
20260505235328 23 222 1.6 0.0 0.00 0.00 0.00 39 1007.6
20260505234833 23 192 1.6 0.0 0.00 0.00 0.00 40 1007.5
20260505234341 23 213 4.8 0.0 0.00 0.00 0.00 41 1007.5
20260505233817 23 201 4.8 0.0 0.00 0.00 0.00 40 1007.4
20260505233320 23 186 3.2 0.0 0.00 0.00 0.00 40 1007.5
20260505232857 23 196 1.6 0.0 0.00 0.00 0.00 40 1007.4
20260505232328 23 237 0.0 0.0 0.00 0.00 0.00 40 1007.3
20260505231816 23 223 0.0 0.0 0.00 0.00 0.00 40 1007.3
20260505231332 23 186 0.0 0.0 0.00 0.00 0.00 39 1007.3
20260505230820 24 205 1.6 0.0 0.00 0.00 0.00 39 1007.3
20260505230322 24 197 1.6 0.0 0.00 0.00 0.00 39 1007.2
20260505225822 23 205 3.2 0.0 0.00 0.00 0.00 40 1007.3
20260505225354 23 209 4.8 0.0 0.00 0.00 0.00 40 1007.2
20260505224841 23 223 3.2 0.0 0.00 0.00 0.00 39 1007.0
20260505224344 24 232 1.6 0.0 0.00 0.00 0.00 38 1007.0
20260505223823 24 184 1.6 0.0 0.00 0.00 0.00 39 1007.0
20260505223356 24 229 3.2 0.0 0.00 0.00 0.00 39 1007.1
20260505222844 24 226 3.2 0.0 0.00 0.00 0.00 38 1007.0
20260505222325 24 233 3.2 0.0 0.00 0.00 0.00 38 1007.0
20260505221820 24 225 3.2 0.0 0.00 0.00 0.00 38 1007.0
20260505221356 24 219 6.4 0.0 0.00 0.00 0.00 38 1007.0
20260505220845 25 194 8.0 0.0 0.00 0.00 0.00 37 1006.9
20260505220321 24 194 4.8 0.0 0.00 0.00 0.00 38 1007.0
20260505215826 25 187 3.2 0.0 0.00 0.00 0.00 38 1006.9
20260505215328 25 217 4.8 0.0 0.00 0.00 0.00 37 1006.8
20260505214831 25 200 6.4 0.0 0.00 0.00 0.00 38 1006.9
20260505214321 25 199 6.4 0.0 0.00 0.00 0.00 37 1006.8
20260505213827 25 209 3.2 0.0 0.00 0.00 0.00 38 1006.8
20260505213329 25 197 1.6 0.0 0.00 0.00 0.00 38 1006.8
20260505212826 25 183 6.4 0.0 0.00 0.00 0.00 38 1006.8
20260505212331 25 221 12.9 0.0 0.00 0.00 0.00 37 1006.7
20260505211817 25 150 12.9 0.0 0.00 0.00 0.00 38 1006.8
20260505211320 25 153 8.0 0.0 0.00 0.00 0.00 38 1006.6
20260505210817 25 219 8.0 0.0 0.00 0.00 0.00 37 1006.5
20260505210326 26 218 6.4 0.0 0.00 0.00 0.00 37 1006.7
20260505205826 26 235 4.8 0.0 0.00 0.00 0.00 40 1006.6
20260505205331 25 233 4.8 0.0 0.00 0.00 0.00 36 1006.5
20260505204834 26 203 4.8 0.0 0.00 0.00 0.00 37 1006.5
20260505204341 26 200 9.7 0.0 0.00 0.00 0.00 39 1006.5
20260505203825 26 199 11.3 0.0 0.00 0.00 0.00 38 1006.5
20260505203330 26 215 9.7 0.0 0.00 0.00 0.00 36 1006.5
20260505202818 26 212 8.0 0.0 0.00 0.00 0.00 33 1006.6
20260505202357 26 194 8.0 0.0 0.00 0.00 0.00 32 1006.5
20260505201833 27 207 8.0 0.0 0.00 0.00 0.00 32 1006.6
20260505201325 26 190 8.0 0.0 0.00 0.00 0.00 34 1006.4
20260505200851 26 198 8.0 0.0 0.00 0.00 0.00 31 1006.5
20260505200337 26 205 6.4 0.0 0.00 0.00 0.00 31 1006.6
20260505195823 27 261 8.0 0.0 0.00 0.00 0.00 33 1006.5
20260505195324 26 195 12.9 0.0 0.00 0.00 0.00 32 1006.8
20260505194828 26 170 11.3 0.0 0.00 0.00 0.00 32 1006.7
20260505194334 27 222 6.4 0.0 0.00 0.00 0.00 33 1006.8
20260505193840 26 230 6.4 0.0 0.00 0.00 0.00 37 1006.9
20260505193316 26 209 6.4 0.0 0.00 0.00 0.00 35 1006.9
20260505192823 27 210 4.8 0.0 0.00 0.00 0.00 33 1006.9
20260505192332 26 267 9.7 0.0 0.00 0.00 0.00 31 1007.0
20260505191824 26 223 12.9 0.0 0.00 0.00 0.00 32 1007.3
20260505191351 26 158 11.3 0.0 0.00 0.00 0.00 31 1007.3
20260505190815 26 223 12.9 0.0 0.00 0.00 0.00 32 1007.3
20260505190316 26 184 12.9 0.0 0.00 0.00 0.00 32 1007.4
20260505185818 26 200 11.3 0.0 0.00 0.00 0.00 31 1007.6
20260505185324 26 200 11.3 0.0 0.00 0.00 0.00 34 1007.4
20260505184826 26 238 12.9 0.0 0.00 0.00 0.00 32 1007.5
20260505184338 26 217 11.3 0.0 0.00 0.00 0.00 32 1007.7
20260505183815 26 227 9.7 0.0 0.00 0.00 0.00 33 1007.7
20260505183327 26 264 9.7 0.0 0.00 0.00 0.00 33 1007.8
20260505182839 26 202 9.7 0.0 0.00 0.00 0.00 33 1007.7
20260505182324 26 228 8.0 0.0 0.00 0.00 0.00 37 1007.7
20260505181830 26 234 8.0 0.0 0.00 0.00 0.00 36 1007.6
20260505181315 26 207 8.0 0.0 0.00 0.00 0.00 39 1007.8
20260505180815 25 200 4.8 0.0 0.00 0.00 0.00 40 1007.9
20260505180316 26 223 8.0 0.0 0.00 0.00 0.00 39 1008.0
20260505175821 26 229 11.3 0.0 0.00 0.00 0.00 37 1008.0
20260505175346 26 215 12.9 0.0 0.00 0.00 0.00 38 1008.1
20260505174857 25 261 8.0 0.0 0.00 0.00 0.00 38 1008.1
20260505174341 26 170 8.0 0.0 0.00 0.00 0.00 41 1008.1
20260505173818 25 184 11.3 0.0 0.00 0.00 0.00 41 1008.2
20260505173320 25 192 11.3 0.0 0.00 0.00 0.00 41 1008.3
20260505172828 25 196 8.0 0.0 0.00 0.00 0.00 38 1008.3
20260505172331 25 217 6.4 0.0 0.00 0.00 0.00 45 1008.2
20260505171831 25 190 6.4 0.0 0.00 0.00 0.00 45 1008.2
20260505171338 25 172 4.8 0.0 0.00 0.00 0.00 44 1008.4
20260505170820 25 213 6.4 0.0 0.00 0.00 0.00 43 1008.4
20260505170322 25 230 8.0 0.0 0.00 0.00 0.00 44 1008.4
20260505165827 25 210 6.4 0.0 0.00 0.00 0.00 44 1007.4
20260505165354 25 186 3.2 0.0 0.00 0.00 0.00 42 1007.4
20260505164838 25 224 3.2 0.0 0.00 0.00 0.00 44 1007.5
20260505164325 25 230 4.8 0.0 0.00 0.00 0.00 46 1007.6
20260505163834 25 279 6.4 0.0 0.00 0.00 0.00 47 1007.7
20260505163340 25 191 6.4 0.0 0.00 0.00 0.00 47 1007.7
20260505162843 25 213 6.4 0.0 0.00 0.00 0.00 45 1007.8
20260505162315 24 187 6.4 0.0 0.00 0.00 0.00 47 1007.9
20260505161821 24 182 6.4 0.0 0.00 0.00 0.00 48 1008.0
20260505161346 23 192 4.8 0.0 0.00 0.00 0.00 47 1008.1
20260505160830 23 155 3.2 0.0 0.00 0.00 0.00 48 1008.1
20260505160315 23 203 8.0 0.0 0.00 0.00 0.00 51 1008.2
20260505153340 22 225 3.2 0.0 0.00 0.00 0.00 52 1008.5
20260505152826 22 196 4.8 0.0 0.00 0.00 0.00 53 1008.6
20260505152332 22 199 6.4 0.0 0.00 0.00 0.00 56 1008.6
20260505151817 22 173 8.0 0.0 0.00 0.00 0.00 54 1008.6
20260505151320 21 261 6.4 0.0 0.00 0.00 0.00 58 1008.6
20260505150844 21 208 4.8 0.0 0.00 0.00 0.00 57 1008.8
20260505150330 21 218 3.2 0.0 0.00 0.00 0.00 56 1008.7
20260505140319 18 271 0.0 0.0 0.00 0.00 0.00 66 1009.4
20260505124818 16 184 0.0 0.0 0.00 0.00 0.00 70 1009.3
20260505124323 16 209 0.0 0.0 0.00 0.00 0.00 70 1009.2
20260505123823 16 196 1.6 0.0 0.00 0.00 0.00 70 1009.2
20260505123326 16 185 3.2 0.0 0.00 0.00 0.00 71 1009.3
20260505122832 15 200 3.2 0.0 0.00 0.00 0.00 70 1009.3
20260505122336 15 264 3.2 0.0 0.00 0.00 0.00 71 1009.3
20260505121820 15 206 1.6 0.0 0.00 0.00 0.00 71 1009.3
20260505121329 15 209 0.0 0.0 0.00 0.00 0.00 71 1009.3
20260505120838 15 188 1.6 0.0 0.00 0.00 0.00 73 1009.4
20260505120341 15 235 1.6 0.0 0.00 0.00 0.00 74 1009.4
20260505115823 14 191 0.0 0.0 0.00 0.00 0.00 77 1009.3
20260505115325 13 190 0.0 0.0 0.00 0.00 0.00 80 1009.3
20260505114831 13 191 0.0 0.0 0.00 0.00 0.00 83 1009.3
20260505114334 12 190 0.0 0.0 0.00 0.00 0.00 86 1009.2
20260505113836 11 201 0.0 0.0 0.00 0.00 0.00 89 1009.0
20260505113320 10 200 0.0 0.0 0.00 0.00 0.00 92 1008.9
20260505112825 10 309 0.0 0.0 0.00 0.00 0.00 91 1009.0
20260505112328 10 309 0.0 0.0 0.00 0.00 0.00 91 1008.9
20260505111833 9 309 0.0 0.0 0.00 0.00 0.00 91 1008.8
20260505111330 9 308 0.0 0.0 0.00 0.00 0.00 90 1008.8
20260505110832 9 308 0.0 0.0 0.00 0.00 0.00 91 1008.9
20260505110334 8 309 0.0 0.0 0.00 0.00 0.00 90 1008.9
20260505101850 9 315 0.0 0.0 0.00 0.00 0.00 89 1008.8
20260505101330 9 315 0.0 0.0 0.00 0.00 0.00 89 1008.8
20260505100837 9 315 0.0 0.0 0.00 0.00 0.00 89 1008.5
20260505100322 9 315 0.0 0.0 0.00 0.00 0.00 88 1008.5
20260505095832 10 315 0.0 0.0 0.00 0.00 0.00 89 1008.3
20260505095342 10 315 0.0 0.0 0.00 0.00 0.00 88 1008.4
20260505094815 10 315 0.0 0.0 0.00 0.00 0.00 87 1008.4
20260505094344 10 315 0.0 0.0 0.00 0.00 0.00 87 1008.5
20260505093903 10 315 0.0 0.0 0.00 0.00 0.00 87 1008.5
20260505093406 10 315 0.0 0.0 0.00 0.00 0.00 86 1008.5
20260505092841 10 315 0.0 0.0 0.00 0.00 0.00 86 1008.6
20260505092344 11 315 0.0 0.0 0.00 0.00 0.00 85 1008.6
20260505091831 11 315 0.0 0.0 0.00 0.00 0.00 84 1008.7
20260505091324 11 315 0.0 0.0 0.00 0.00 0.00 82 1008.5
20260505090827 12 315 0.0 0.0 0.00 0.00 0.00 76 1008.7
20260505090315 12 197 0.0 0.0 0.00 0.00 0.00 76 1008.8
20260505085827 11 196 0.0 0.0 0.00 0.00 0.00 78 1009.2
20260505085330 11 196 0.0 0.0 0.00 0.00 0.00 79 1009.3
20260505084836 10 194 0.0 0.0 0.00 0.00 0.00 80 1009.3
20260505084333 8 184 0.0 0.0 0.00 0.00 0.00 84 1009.2
20260505083839 8 183 0.0 0.0 0.00 0.00 0.00 84 1009.1
20260505083321 8 183 0.0 0.0 0.00 0.00 0.00 85 1008.9
20260505082827 8 183 0.0 0.0 0.00 0.00 0.00 85 1008.9
20260505082352 8 183 0.0 0.0 0.00 0.00 0.00 85 1008.7
20260505081823 8 183 0.0 0.0 0.00 0.00 0.00 85 1008.7
20260505081329 8 183 0.0 0.0 0.00 0.00 0.00 85 1008.6
20260505080830 8 183 0.0 0.0 0.00 0.00 0.00 85 1008.6
20260505080336 8 183 0.0 0.0 0.00 0.00 0.00 85 1008.5
20260505075842 8 183 0.0 0.0 0.00 0.00 0.00 84 1008.5
20260505075334 8 183 0.0 0.0 0.00 0.00 0.00 85 1008.4
20260505074820 8 183 0.0 0.0 0.00 0.00 0.00 84 1008.4
20260505074327 8 183 0.0 0.0 0.00 0.00 0.00 84 1008.4
20260505073852 8 183 0.0 0.0 0.00 0.00 0.00 84 1008.5
20260505073325 8 183 0.0 0.0 0.00 0.00 0.00 85 1008.5
20260505072827 8 183 0.0 0.0 0.00 0.00 0.00 84 1008.6
20260505072329 8 183 0.0 0.0 0.00 0.00 0.00 85 1008.6
20260505071829 8 183 0.0 0.0 0.00 0.00 0.00 84 1008.6
20260505071335 8 183 0.0 0.0 0.00 0.00 0.00 84 1008.5
20260505070820 8 183 0.0 0.0 0.00 0.00 0.00 84 1008.5
20260505070319 8 183 0.0 0.0 0.00 0.00 0.00 84 1008.5
20260505065822 8 183 0.0 0.0 0.00 0.00 0.00 83 1008.6
20260505065351 8 183 0.0 0.0 0.00 0.00 0.00 83 1008.6
20260505064832 8 183 0.0 0.0 0.00 0.00 0.00 83 1008.6
20260505064342 8 183 0.0 0.0 0.00 0.00 0.00 83 1008.5
20260505063844 8 183 0.0 0.0 0.00 0.00 0.00 83 1008.5
20260505063329 8 183 0.0 0.0 0.00 0.00 0.00 83 1008.5
20260505062833 8 183 0.0 0.0 0.00 0.00 0.00 83 1008.7
20260505062326 8 183 0.0 0.0 0.00 0.00 0.00 83 1008.8
20260505061828 8 183 0.0 0.0 0.00 0.00 0.00 83 1008.7
20260505061334 7 183 0.0 0.0 0.00 0.00 0.00 83 1008.8
20260505060822 7 183 0.0 0.0 0.00 0.00 0.00 83 1008.8
20260505060327 7 183 0.0 0.0 0.00 0.00 0.00 83 1008.9